EW0609 Weather Reports


Display with metric or nautical units.
time (UTC)temp
F
wind
direction
speed
MPH
gust
MPH
rain 1hr
in
rain 24hr
in
rain mn
in
humidity
%
barometer
mb
20260505124730 53 0 10.0 19.0 0.00 0.00 0.00 54 1008.1
20260505124229 53 7 7.0 17.0 0.00 0.00 0.00 55 1007.8
20260505123730 53 3 9.0 17.0 0.00 0.00 0.00 54 1007.8
20260505123230 53 326 6.0 20.0 0.00 0.00 0.00 54 1007.8
20260505122730 54 0 7.0 20.0 0.00 0.00 0.00 54 1007.6
20260505122618 54 354 10.0 15.0 0.00 0.00 0.00 54 1007.6
20260505121730 54 17 9.0 14.0 0.00 0.00 0.00 55 1007.6
20260505121230 54 347 5.0 16.0 0.00 0.00 0.00 55 1007.5
20260505121020 54 1 9.0 19.0 0.00 0.00 0.00 55 1007.4
20260505120903 54 6 8.0 19.0 0.00 0.00 0.00 55 1007.4
20260505115729 55 333 7.0 17.0 0.00 0.00 0.00 55 1007.4
20260505115229 55 336 6.0 17.0 0.00 0.00 0.00 55 1007.0
20260505115111 55 7 8.0 17.0 0.00 0.00 0.00 55 1007.0
20260505114619 55 0 7.0 17.0 0.00 0.00 0.00 55 1006.8
20260505113729 55 351 9.0 15.0 0.00 0.00 0.00 56 1007.0
20260505113622 55 0 9.0 15.0 0.00 0.00 0.00 56 1007.0
20260505112729 55 0 9.0 16.0 0.00 0.00 0.00 56 1007.0
20260505112617 55 0 7.0 16.0 0.00 0.00 0.00 56 1006.9
20260505111730 56 357 8.0 15.0 0.00 0.00 0.00 56 1006.7
20260505111230 56 0 9.0 17.0 0.00 0.00 0.00 57 1006.7
20260505110730 56 7 8.0 19.0 0.00 0.00 0.00 57 1006.8
20260505110229 56 348 8.0 21.0 0.00 0.00 0.00 57 1006.8
20260505102111 59 338 9.0 22.0 0.00 0.00 0.00 55 1006.4
20260505101230 59 350 9.0 22.0 0.00 0.00 0.00 54 1006.5
20260505100730 60 299 9.0 20.0 0.00 0.00 0.00 52 1006.2
20260505100230 60 13 11.0 21.0 0.00 0.00 0.00 51 1006.1
20260505095731 61 334 7.0 21.0 0.00 0.00 0.00 49 1005.9
20260505095230 62 347 11.0 21.0 0.00 0.00 0.00 46 1005.6
20260505094731 63 343 10.0 20.0 0.00 0.00 0.00 40 1005.6
20260505094231 64 336 11.0 20.0 0.00 0.00 0.00 32 1005.4
20260505093730 65 336 10.0 20.0 0.00 0.00 0.00 31 1005.2
20260505093229 66 357 6.0 17.0 0.00 0.00 0.00 28 1005.1
20260505092728 67 336 8.0 18.0 0.00 0.00 0.00 27 1004.8
20260505092229 68 358 10.0 18.0 0.00 0.00 0.00 26 1004.7
20260505092018 68 309 4.0 14.0 0.00 0.00 0.00 27 1004.7
20260505091901 68 302 8.0 16.0 0.00 0.00 0.00 26 1004.8
20260505090729 68 292 5.0 17.0 0.00 0.00 0.00 27 1004.3
20260505090229 69 0 4.0 20.0 0.00 0.00 0.00 27 1004.3
20260505085729 68 331 5.0 20.0 0.00 0.00 0.00 27 1004.5
20260505085230 68 286 4.0 12.0 0.00 0.00 0.00 28 1004.1
20260505084729 68 278 7.0 13.0 0.00 0.00 0.00 28 1003.9
20260505084619 69 217 5.0 13.0 0.00 0.00 0.00 27 1003.8
20260505083730 69 258 5.0 15.0 0.00 0.00 0.00 27 1003.7
20260505083229 69 265 5.0 15.0 0.00 0.00 0.00 27 1003.6
20260505082730 70 266 7.0 16.0 0.00 0.00 0.00 27 1003.6
20260505082229 70 279 7.0 16.0 0.00 0.00 0.00 26 1003.5
20260505081731 70 285 8.0 15.0 0.00 0.00 0.00 27 1003.3
20260505081229 70 254 6.0 15.0 0.00 0.00 0.00 27 1003.6
20260505080729 70 255 7.0 15.0 0.00 0.00 0.00 27 1003.6
20260505080229 69 307 6.0 11.0 0.00 0.00 0.00 27 1003.8
20260505075728 69 248 5.0 10.0 0.00 0.00 0.00 27 1003.9
20260505075229 69 252 6.0 14.0 0.00 0.00 0.00 27 1004.0
20260505074731 70 240 6.0 14.0 0.00 0.00 0.00 27 1004.0
20260505074228 70 268 7.0 13.0 0.00 0.00 0.00 27 1004.1
20260505073729 70 228 6.0 13.0 0.00 0.00 0.00 27 1004.0
20260505073229 70 310 5.0 13.0 0.00 0.00 0.00 27 1004.0
20260505072729 70 276 5.0 13.0 0.00 0.00 0.00 27 1004.1
20260505072620 70 265 4.0 13.0 0.00 0.00 0.00 26 1004.1
20260505071728 70 228 6.0 13.0 0.00 0.00 0.00 26 1004.0
20260505071230 71 276 5.0 15.0 0.00 0.00 0.00 26 1004.0
20260505070731 71 262 6.0 15.0 0.00 0.00 0.00 26 1003.9
20260505070230 71 259 4.0 12.0 0.00 0.00 0.00 26 1004.0
20260505065728 71 266 6.0 12.0 0.00 0.00 0.00 26 1004.0
20260505065230 71 268 6.0 15.0 0.00 0.00 0.00 26 1003.9
20260505064729 71 281 6.0 15.0 0.00 0.00 0.00 25 1003.8
20260505064230 71 241 6.0 16.0 0.00 0.00 0.00 25 1003.9
20260505063729 71 295 5.0 16.0 0.00 0.00 0.00 26 1003.9
20260505063229 71 226 8.0 17.0 0.00 0.00 0.00 25 1003.9
20260505062729 71 252 7.0 17.0 0.00 0.00 0.00 25 1004.0
20260505062228 71 231 6.0 18.0 0.00 0.00 0.00 25 1004.1
20260505061729 71 227 6.0 18.0 0.00 0.00 0.00 25 1004.1
20260505061516 71 204 7.0 17.0 0.00 0.00 0.00 26 1004.0
20260505061359 71 199 7.0 17.0 0.00 0.00 0.00 26 1003.9
20260505060615 71 259 5.0 15.0 0.00 0.00 0.00 25 1004.0
20260505055728 72 189 6.0 14.0 0.00 0.00 0.00 25 1004.0
20260505055231 72 233 8.0 14.0 0.00 0.00 0.00 25 1003.9
20260505054728 72 264 6.0 16.0 0.00 0.00 0.00 26 1003.9
20260505054229 72 259 8.0 17.0 0.00 0.00 0.00 25 1004.1
20260505053728 72 250 7.0 18.0 0.00 0.00 0.00 25 1004.1
20260505053228 72 235 8.0 18.0 0.00 0.00 0.00 25 1004.1
20260505052730 72 276 8.0 18.0 0.00 0.00 0.00 25 1004.0
20260505052229 72 269 7.0 16.0 0.00 0.00 0.00 25 1004.0
20260505051728 72 243 7.0 17.0 0.00 0.00 0.00 25 1004.0
20260505051229 72 240 10.0 17.0 0.00 0.00 0.00 25 1004.1
20260505050729 72 238 7.0 19.0 0.00 0.00 0.00 25 1004.1
20260505050228 72 247 9.0 19.0 0.00 0.00 0.00 25 1004.1
20260505050112 73 234 6.0 16.0 0.00 0.00 0.00 25 1004.1
20260505040729 74 223 6.0 14.0 0.00 0.00 0.00 24 1004.2
20260505040619 74 169 9.0 18.0 0.00 0.00 0.00 24 1004.2
20260505035730 74 200 7.0 18.0 0.00 0.00 0.00 24 1004.2
20260505035228 74 244 8.0 18.0 0.00 0.00 0.00 24 1004.2
20260505034728 74 257 8.0 18.0 0.00 0.00 0.00 23 1004.2
20260505034230 75 206 8.0 17.0 0.00 0.00 0.00 23 1004.2
20260505033729 75 224 8.0 18.0 0.00 0.00 0.00 23 1004.2
20260505033230 75 234 6.0 20.0 0.00 0.00 0.00 23 1004.1
20260505033115 75 252 11.0 21.0 0.00 0.00 0.00 22 1004.1
20260505032228 75 227 10.0 21.0 0.00 0.00 0.00 22 1004.0
20260505032117 75 221 10.0 22.0 0.00 0.00 0.00 20 1004.0
20260505031229 76 203 7.0 22.0 0.00 0.00 0.00 19 1003.9
20260505030729 76 228 6.0 17.0 0.00 0.00 0.00 18 1003.9
20260505030228 76 233 6.0 19.0 0.00 0.00 0.00 18 1003.8
20260505025728 76 224 5.0 19.0 0.00 0.00 0.00 18 1003.8
20260505025228 76 200 5.0 14.0 0.00 0.00 0.00 17 1003.8
20260505024729 77 272 6.0 16.0 0.00 0.00 0.00 17 1003.9
20260505024616 77 245 5.0 16.0 0.00 0.00 0.00 17 1003.7
20260505024117 77 231 7.0 14.0 0.00 0.00 0.00 17 1003.7
20260505023228 77 299 6.0 15.0 0.00 0.00 0.00 17 1003.7
20260505022731 77 235 6.0 15.0 0.00 0.00 0.00 16 1003.7
20260505022228 78 233 6.0 15.0 0.00 0.00 0.00 16 1003.7
20260505021728 78 213 8.0 17.0 0.00 0.00 0.00 16 1003.6
20260505021228 78 234 6.0 17.0 0.00 0.00 0.00 16 1003.6
20260505020728 78 217 6.0 16.0 0.00 0.00 0.00 16 1003.6
20260505020228 78 244 9.0 16.0 0.00 0.00 0.00 16 1003.5
20260505015730 78 231 9.0 13.0 0.00 0.00 0.00 16 1003.6
20260505015228 78 274 8.0 15.0 0.00 0.00 0.00 16 1003.7
20260505014728 78 210 7.0 15.0 0.00 0.00 0.00 16 1003.5
20260505014228 79 240 8.0 14.0 0.00 0.00 0.00 16 1003.5
20260505013729 79 221 6.0 21.0 0.00 0.00 0.00 16 1003.5
20260505013229 79 217 8.0 21.0 0.00 0.00 0.00 15 1003.3
20260505012728 80 231 10.0 17.0 0.00 0.00 0.00 15 1003.2
20260505012230 80 206 7.0 18.0 0.00 0.00 0.00 15 1003.5
20260505011728 80 235 11.0 18.0 0.00 0.00 0.00 15 1003.5
20260505011227 80 244 10.0 18.0 0.00 0.00 0.00 15 1003.3
20260505010729 80 276 8.0 18.0 0.00 0.00 0.00 15 1003.3
20260505010228 81 261 8.0 18.0 0.00 0.00 0.00 15 1003.2
20260505005728 81 221 10.0 18.0 0.00 0.00 0.00 15 1003.3
20260505005229 81 220 7.0 18.0 0.00 0.00 0.00 15 1003.3
20260505004729 81 261 6.0 21.0 0.00 0.00 0.00 15 1003.3
20260505004229 82 243 8.0 21.0 0.00 0.00 0.00 14 1003.5
20260505003729 82 190 10.0 21.0 0.00 0.00 0.00 14 1003.5
20260505003229 82 268 8.0 19.0 0.00 0.00 0.00 15 1003.6
20260505002728 82 285 5.0 17.0 0.00 0.00 0.00 14 1003.5
20260505002229 82 259 8.0 17.0 0.00 0.00 0.00 15 1003.5
20260505002009 83 241 9.0 23.0 0.00 0.00 0.00 14 1003.6
20260505001857 83 243 6.0 22.0 0.00 0.00 0.00 14 1003.6
20260505000728 83 216 6.0 23.0 0.00 0.00 0.00 14 1003.5
20260505000228 83 257 9.0 19.0 0.00 0.00 0.00 15 1003.7
20260504235728 83 264 8.0 21.0 0.00 0.00 0.00 15 1003.6
20260504235301 83 305 5.0 13.0 0.00 0.00 0.00 22 1003.7
20260504235252 83 226 4.0 11.0 0.00 0.00 0.00 22 1003.8
20260504235241 83 200 5.0 12.0 0.00 0.00 0.00 23 1003.7
20260504235233 83 221 8.0 21.0 0.00 0.00 0.00 18 1003.8
20260504233230 83 219 6.0 13.0 0.00 0.00 0.00 22 1003.8
20260504232727 83 164 5.0 13.0 0.00 0.00 0.00 23 1003.7
20260504232229 83 250 6.0 14.0 0.00 0.00 0.00 23 1003.8
20260504231729 83 237 7.0 15.0 0.00 0.00 0.00 22 1003.8
20260504231228 84 226 8.0 15.0 0.00 0.00 0.00 23 1003.8
20260504230730 84 231 5.0 19.0 0.00 0.00 0.00 22 1003.9
20260504230230 84 247 9.0 19.0 0.00 0.00 0.00 22 1003.8
20260504225728 84 178 7.0 14.0 0.00 0.00 0.00 21 1003.9
20260504225625 84 240 6.0 16.0 0.00 0.00 0.00 21 1003.9
20260504224727 84 307 7.0 16.0 0.00 0.00 0.00 22 1003.9
20260504224229 85 196 7.0 15.0 0.00 0.00 0.00 21 1004.0
20260504223729 85 227 7.0 14.0 0.00 0.00 0.00 20 1004.1
20260504223228 85 241 6.0 15.0 0.00 0.00 0.00 19 1004.2
20260504223114 86 230 8.0 15.0 0.00 0.00 0.00 19 1004.1
20260504222230 86 259 5.0 18.0 0.00 0.00 0.00 17 1004.2
20260504222122 86 238 7.0 18.0 0.00 0.00 0.00 19 1004.2
20260504221230 85 269 8.0 14.0 0.00 0.00 0.00 20 1004.3
20260504220729 85 248 6.0 14.0 0.00 0.00 0.00 20 1004.3
20260504220618 85 213 7.0 18.0 0.00 0.00 0.00 19 1004.3
20260504215729 85 203 8.0 18.0 0.00 0.00 0.00 19 1004.5
20260504215228 86 227 5.0 22.0 0.00 0.00 0.00 20 1004.5
20260504214728 86 202 9.0 22.0 0.00 0.00 0.00 19 1004.7
20260504214230 86 235 6.0 21.0 0.00 0.00 0.00 20 1004.7
20260504213728 85 285 10.0 21.0 0.00 0.00 0.00 19 1004.9
20260504213228 85 248 5.0 15.0 0.00 0.00 0.00 20 1004.8
20260504212728 86 214 10.0 15.0 0.00 0.00 0.00 19 1004.8
20260504212229 86 259 8.0 15.0 0.00 0.00 0.00 20 1005.0
20260504211729 86 252 5.0 18.0 0.00 0.00 0.00 21 1005.1
20260504211229 86 266 8.0 21.0 0.00 0.00 0.00 20 1005.2
20260504210728 87 262 8.0 21.0 0.00 0.00 0.00 20 1005.4
20260504210612 87 127 9.0 16.0 0.00 0.00 0.00 20 1005.4
20260504205728 86 244 9.0 19.0 0.00 0.00 0.00 20 1005.5
20260504205228 85 274 7.0 19.0 0.00 0.00 0.00 21 1005.5
20260504204729 85 278 9.0 19.0 0.00 0.00 0.00 20 1005.6
20260504204228 85 213 9.0 19.0 0.00 0.00 0.00 21 1005.8
20260504203730 84 269 5.0 17.0 0.00 0.00 0.00 22 1005.6
20260504203228 85 202 6.0 17.0 0.00 0.00 0.00 22 1005.7
20260504202729 84 237 5.0 16.0 0.00 0.00 0.00 23 1005.8
20260504202227 85 190 5.0 17.0 0.00 0.00 0.00 23 1005.8
20260504201728 85 262 7.0 18.0 0.00 0.00 0.00 24 1005.9
20260504201228 84 276 8.0 18.0 0.00 0.00 0.00 22 1006.0
20260504200728 85 240 5.0 16.0 0.00 0.00 0.00 23 1006.0
20260504200609 85 262 8.0 16.0 0.00 0.00 0.00 21 1006.0
20260504195729 85 272 6.0 15.0 0.00 0.00 0.00 25 1006.1
20260504195230 85 250 3.0 15.0 0.00 0.00 0.00 24 1006.4
20260504194729 84 275 9.0 15.0 0.00 0.00 0.00 24 1006.5
20260504194228 84 188 6.0 17.0 0.00 0.00 0.00 25 1006.4
20260504193728 84 274 9.0 17.0 0.00 0.00 0.00 24 1006.6
20260504193229 84 292 9.0 17.0 0.00 0.00 0.00 23 1006.6
20260504192730 84 262 10.0 17.0 0.00 0.00 0.00 22 1006.8
20260504192228 84 265 2.0 16.0 0.00 0.00 0.00 24 1006.7
20260504191728 83 268 7.0 16.0 0.00 0.00 0.00 22 1006.8
20260504191229 84 279 10.0 17.0 0.00 0.00 0.00 23 1006.9
20260504190728 84 243 7.0 17.0 0.00 0.00 0.00 23 1006.8
20260504190230 84 296 4.0 16.0 0.00 0.00 0.00 22 1006.9
20260504185727 84 219 8.0 16.0 0.00 0.00 0.00 23 1007.0
20260504185229 84 262 6.0 16.0 0.00 0.00 0.00 24 1006.9
20260504184729 84 228 8.0 15.0 0.00 0.00 0.00 25 1007.1
20260504184230 84 228 7.0 16.0 0.00 0.00 0.00 24 1007.2
20260504184113 83 228 8.0 17.0 0.00 0.00 0.00 25 1007.4
20260504183229 84 231 9.0 17.0 0.00 0.00 0.00 24 1007.5
20260504182728 84 257 8.0 20.0 0.00 0.00 0.00 24 1007.6
20260504182227 84 305 9.0 20.0 0.00 0.00 0.00 22 1007.8
20260504181728 84 252 7.0 16.0 0.00 0.00 0.00 24 1007.7
20260504181227 84 268 6.0 14.0 0.00 0.00 0.00 24 1007.7
20260504180728 84 289 8.0 14.0 0.00 0.00 0.00 24 1007.8
20260504180228 84 289 4.0 13.0 0.00 0.00 0.00 25 1007.9
20260504175729 84 261 7.0 14.0 0.00 0.00 0.00 25 1008.0
20260504175227 84 219 8.0 15.0 0.00 0.00 0.00 25 1008.0
20260504174728 83 266 7.0 19.0 0.00 0.00 0.00 24 1008.1
20260504174621 83 290 6.0 19.0 0.00 0.00 0.00 25 1008.3
20260504173728 83 262 7.0 15.0 0.00 0.00 0.00 24 1008.4
20260504173227 84 316 6.0 18.0 0.00 0.00 0.00 24 1008.3
20260504172730 84 353 6.0 18.0 0.00 0.00 0.00 24 1008.5
20260504172229 83 305 7.0 16.0 0.00 0.00 0.00 24 1008.6
20260504171728 83 276 7.0 17.0 0.00 0.00 0.00 25 1008.5
20260504171228 83 278 10.0 17.0 0.00 0.00 0.00 25 1008.6
20260504171118 83 279 9.0 20.0 0.00 0.00 0.00 24 1008.6
20260504170229 83 265 7.0 20.0 0.00 0.00 0.00 25 1008.8
20260504160228 80 299 5.0 12.0 0.00 0.00 0.00 29 1009.0
20260504150730 74 275 6.0 13.0 0.00 0.00 0.00 38 1009.4
20260504150228 73 281 6.0 13.0 0.00 0.00 0.00 40 1009.5
20260504150117 72 289 6.0 14.0 0.00 0.00 0.00 41 1009.4
20260504141227 66 228 5.0 10.0 0.00 0.00 0.00 53 1009.5
20260504140728 66 235 4.0 12.0 0.00 0.00 0.00 53 1009.4
20260504140226 65 262 5.0 12.0 0.00 0.00 0.00 53 1009.1
20260504130727 62 230 5.0 10.0 0.00 0.00 0.00 57 1008.9
20260504130228 61 262 6.0 14.0 0.00 0.00 0.00 57 1008.8